Location: 433rd Scouts Home(Lloyd Manor Park, Etobicoke )
(43.6722°N, 79.5542°W)
Time: 18:10:15
(UTC-04:00)

N. Korean satellite - Pass Details

Date: 28 September 2021
Orbit: 450 x 494 km, 97.3° (Epoch: 28 October)

Event Time Altitude Azimuth Distance (km) Brightness Sun altitude
Rises 05:56:25 0° 24° (NNE) 2,542 10.7 -14.5°
Reaches altitude 10° 05:58:44 10° 38° (NE) 1,666 10.0 -14.1°
Maximum altitude 06:01:46 26° 96° (E) 1,002 9.0 -13.6°
Drops below altitude 10° 06:04:49 10° 154° (SSE) 1,674 9.5 -13.0°
Sets 06:07:08 0° 167° (SSE) 2,556 10.3 -12.6°
